Muskegon, MI

5:45 PM EDT on August 23, 2017 (GMT -0400)
Muskegon County

Weather History for KMKG - November, 2012

Change the Weather History Date:

Saturday, November 17, 2012

  Actual Average Record
Temperature  
Mean Temperature 41 °F 40 °F  
Max Temperature 52 °F 46 °F 71 °F (1958)
Min Temperature 29 °F 34 °F 9 °F (1959)
Degree Days  
Heating Degree Days 24 25  
Month to date heating degree days 403 381  
Since 1 July heating degree days 985 1004  
Cooling Degree Days 0 0  
Month to date cooling degree days 0 0  
Year to date cooling degree days 925 566  
Moisture  
Dew Point 31 °F    
Average Humidity 72    
Maximum Humidity 100    
Minimum Humidity 44    
Precipitation  
Precipitation 0.00 in 0.11 in 1.91 in (1952)
Month to date precipitation 0.45 1.95  
Year to date precipitation 28.43 29.53  
Snow  
Snow 0.00 in 0.20 in 5.80 in (2008)
Month to date snowfall 0.2 1.9  
Since 1 July snowfall 0.2 2.1  
Since 1 September snowfall 0.2 2.1  
Snow Depth 0.00 in    
Sea Level Pressure  
Sea Level Pressure 30.54 in    
Wind  
Wind Speed 3 mph (SSE)    
Max Wind Speed 14 mph    
Max Gust Speed 16 mph    
Visibility 4 miles    
Events Fog    
T = Trace of Precipitation, MM = Missing Value Source: NWS Daily Summary

Daily Weather History Graph

Daily Weather History Graph

Search for Another Location

Airport or City:

Trip Planner

Search our weather history database for the weather conditions in past years. The results will help you decide how hot, cold, wet, or windy it might be!

Date:

Astronomy

Nov. 17, 2012 Rise Set
Actual Time 7:40 AM EST 5:18 PM EST
Civil Twilight 7:10 AM EST 5:49 PM EST
Nautical Twilight 6:35 AM EST 6:24 PM EST
Astronomical Twilight 6:01 AM EST 6:57 PM EST
Moon 11:25 AM EST (11/17) 9:28 PM EST (11/17)
Length of Visible Light 10h 39m
Length of Day
9h 37m
Waxing Crescent, 20% of the Moon is Illuminated
Nov 17
Waxing Crescent
Nov 20
First Quarter
Nov 28
Full
Dec 6
Last Quarter
Dec 13
New

Hourly Weather History & Observations

Time (EST) Temp. Windchill Dew Point Humidity Pressure Visibility Wind Dir Wind Speed Gust Speed Precip Events Conditions
12:55 AM 37.0 °F 33.3 °F 36.0 °F 96% 30.51 in 0.2 mi SE 4.6 mph - N/A Fog Fog
1:17 AM 37.4 °F - 35.6 °F 93% 30.50 in 0.2 mi Calm Calm - N/A Fog Fog
1:26 AM 37.4 °F - 35.6 °F 93% 30.50 in 0.5 mi Calm Calm - N/A Fog Fog
1:45 AM 37.4 °F - 35.6 °F 93% 30.51 in 0.2 mi Calm Calm - N/A Fog Fog
1:52 AM 37.4 °F - 35.6 °F 93% 30.51 in 0.2 mi Calm Calm - N/A Fog Fog
1:55 AM 37.0 °F - 35.1 °F 93% 30.53 in 0.2 mi Calm Calm - N/A Fog Fog
2:05 AM 35.6 °F - 33.8 °F 93% 30.51 in 0.2 mi Calm Calm - N/A Fog Fog
2:55 AM 35.1 °F 32.2 °F 33.1 °F 92% 30.53 in 0.2 mi SE 3.5 mph - N/A Fog Fog
3:55 AM 33.1 °F - 30.9 °F 92% 30.54 in 0.2 mi Calm Calm - N/A Fog Fog
4:55 AM 32.0 °F - 30.9 °F 96% 30.55 in 0.2 mi Calm Calm - N/A Fog Fog
5:45 AM 32.0 °F - 30.2 °F 93% 30.54 in 0.2 mi Calm Calm - N/A Fog Fog
5:55 AM 32.0 °F - 30.0 °F 92% 30.56 in 0.2 mi Calm Calm - N/A Fog Fog
6:48 AM 30.2 °F 25.4 °F 28.4 °F 93% 30.54 in 0.5 mi SE 4.6 mph - N/A Fog Light Freezing Fog
6:55 AM 30.0 °F 25.2 °F 28.0 °F 92% 30.56 in 0.5 mi SE 4.6 mph - N/A Fog Light Freezing Fog
7:02 AM 30.2 °F 25.4 °F 28.4 °F 93% 30.54 in 0.5 mi SE 4.6 mph - N/A Fog Light Freezing Fog
7:17 AM 30.2 °F - 28.4 °F 93% 30.55 in 0.5 mi Calm Calm - N/A Fog Light Freezing Fog
7:33 AM 30.2 °F - 26.6 °F 86% 30.55 in 1.2 mi Calm Calm - N/A   Scattered Clouds
7:55 AM 30.0 °F - 27.0 °F 88% 30.58 in 1.0 mi Calm Calm - N/A   Scattered Clouds
8:55 AM 32.0 °F - 28.9 °F 88% 30.58 in 1.5 mi Calm Calm - N/A   Clear
9:33 AM 33.8 °F 30.8 °F 30.2 °F 87% 30.56 in 2.0 mi SE 3.5 mph - N/A   Clear
9:55 AM 36.0 °F 32.1 °F 33.1 °F 89% 30.58 in 2.0 mi SE 4.6 mph - N/A   Clear
10:55 AM 43.0 °F 41.3 °F 37.9 °F 82% 30.59 in 3.0 mi SSE 3.5 mph - N/A   Haze
11:55 AM 48.9 °F - 39.0 °F 69% 30.57 in 5.0 mi South 8.1 mph - N/A   Haze
12:55 PM 51.1 °F - 30.0 °F 44% 30.55 in 9.0 mi SSW 9.2 mph - N/A   Clear
1:55 PM 51.1 °F - 30.9 °F 46% 30.54 in 10.0 mi South 11.5 mph - N/A   Clear
2:55 PM 51.1 °F - 30.9 °F 46% 30.54 in 10.0 mi SSW 11.5 mph - N/A   Clear
3:55 PM 50.0 °F - 30.0 °F 46% 30.53 in 10.0 mi SSW 6.9 mph - N/A   Clear
4:55 PM 46.0 °F 43.9 °F 33.1 °F 61% 30.53 in 10.0 mi SW 4.6 mph - N/A   Clear
5:55 PM 43.0 °F - 33.1 °F 68% 30.52 in 10.0 mi Calm Calm - N/A   Clear
6:55 PM 39.2 °F - 32.0 °F 75% 30.50 in 10.0 mi Calm Calm - N/A   Clear
7:55 PM 36.0 °F - 30.9 °F 82% 30.52 in 8.0 mi Calm Calm - N/A   Clear
8:55 PM 33.1 °F - 28.9 °F 85% 30.52 in 8.0 mi Calm Calm - N/A   Clear
9:55 PM 33.1 °F - 28.0 °F 82% 30.52 in 8.0 mi Calm Calm - N/A   Clear
10:55 PM 32.0 °F - 28.0 °F 85% 30.52 in 8.0 mi Calm Calm - N/A   Clear
11:55 PM 32.0 °F - 26.1 °F 79% 30.52 in 8.0 mi Calm Calm - N/A   Clear